TimeCDT,TemperatureF,Dew PointF,Humidity,Sea Level PressureIn,VisibilityMPH,Wind Direction,Wind SpeedMPH,Gust SpeedMPH,PrecipitationIn,Events,Conditions,WindDirDegrees,DateUTC
12:15 AM,73.4,62.6,69,30.11,10.0,Calm,Calm,-,N/A,,Mostly Cloudy,0,2013-08-28 05:15:00
12:35 AM,73.4,62.6,69,30.11,10.0,Calm,Calm,-,N/A,,Mostly Cloudy,0,2013-08-28 05:35:00
12:55 AM,73.4,62.6,69,30.11,10.0,Calm,Calm,-,N/A,,Scattered Clouds,0,2013-08-28 05:55:00
1:15 AM,73.4,62.6,69,30.10,10.0,South,3.5,-,N/A,,Mostly Cloudy,180,2013-08-28 06:15:00
1:35 AM,75.2,62.6,65,30.10,10.0,South,4.6,-,N/A,,Partly Cloudy,170,2013-08-28 06:35:00
1:55 AM,75.2,64.4,69,30.09,10.0,SSE,4.6,-,N/A,,Clear,160,2013-08-28 06:55:00
2:15 AM,75.2,62.6,65,30.08,10.0,South,4.6,-,N/A,,Clear,180,2013-08-28 07:15:00
2:35 AM,73.4,64.4,73,30.08,10.0,Calm,Calm,-,N/A,,Clear,0,2013-08-28 07:35:00
2:55 AM,71.6,64.4,78,30.09,10.0,Calm,Calm,-,N/A,,Scattered Clouds,0,2013-08-28 07:55:00
3:15 AM,68.0,64.4,88,30.09,10.0,Calm,Calm,-,N/A,,Partly Cloudy,0,2013-08-28 08:15:00
3:35 AM,68.0,64.4,88,30.09,10.0,Calm,Calm,-,N/A,,Clear,0,2013-08-28 08:35:00
3:55 AM,68.0,64.4,88,30.08,10.0,Calm,Calm,-,N/A,,Clear,0,2013-08-28 08:55:00
4:15 AM,68.0,64.4,88,30.08,10.0,Calm,Calm,-,N/A,,Clear,0,2013-08-28 09:15:00
4:35 AM,68.0,64.4,88,30.08,10.0,Calm,Calm,-,N/A,,Clear,0,2013-08-28 09:35:00
4:55 AM,68.0,64.4,88,30.08,10.0,Calm,Calm,-,N/A,,Clear,0,2013-08-28 09:55:00
5:15 AM,68.0,64.4,88,30.09,10.0,Calm,Calm,-,N/A,,Clear,0,2013-08-28 10:15:00
5:35 AM,68.0,64.4,88,30.09,10.0,Calm,Calm,-,N/A,,Clear,0,2013-08-28 10:35:00
5:55 AM,68.0,62.6,83,30.10,10.0,Calm,Calm,-,N/A,,Clear,0,2013-08-28 10:55:00
6:15 AM,69.8,62.6,78,30.10,10.0,Calm,Calm,-,N/A,,Clear,0,2013-08-28 11:15:00
6:35 AM,69.8,62.6,78,30.10,10.0,Calm,Calm,-,N/A,,Clear,0,2013-08-28 11:35:00
6:45 AM,69.8,62.6,78,30.10,10.0,SSW,3.5,-,N/A,,Scattered Clouds,200,2013-08-28 11:45:00
7:45 AM,73.4,64.4,73,30.12,10.0,Calm,Calm,-,N/A,,Scattered Clouds,0,2013-08-28 12:45:00
8:45 AM,77.0,66.2,69,30.13,10.0,Calm,Calm,-,N/A,,Scattered Clouds,0,2013-08-28 13:45:00
9:52 AM,82.4,66.2,58,30.14,10.0,Calm,Calm,-,N/A,,Partly Cloudy,0,2013-08-28 14:52:00
10:50 AM,84.2,68.0,58,30.14,10.0,South,4.6,-,N/A,,Partly Cloudy,190,2013-08-28 15:50:00
11:45 AM,86.0,68.0,55,30.13,10.0,SSW,11.5,-,N/A,,Partly Cloudy,210,2013-08-28 16:45:00
12:45 PM,86.0,66.2,51,30.12,10.0,West,3.5,-,N/A,,Scattered Clouds,260,2013-08-28 17:45:00
1:45 PM,86.0,66.2,51,30.11,10.0,NW,6.9,-,N/A,,Mostly Cloudy,310,2013-08-28 18:45:00
2:45 PM,89.6,66.2,46,30.10,10.0,West,4.6,-,N/A,,Scattered Clouds,260,2013-08-28 19:45:00
3:45 PM,89.6,66.2,46,30.08,10.0,NW,4.6,-,N/A,,Scattered Clouds,310,2013-08-28 20:45:00
4:45 PM,89.6,66.2,46,30.08,10.0,NNW,4.6,-,N/A,,Scattered Clouds,330,2013-08-28 21:45:00
5:45 PM,89.6,66.2,46,30.07,10.0,Calm,Calm,-,N/A,,Partly Cloudy,0,2013-08-28 22:45:00
6:45 PM,86.0,68.0,55,30.07,10.0,Calm,Calm,-,N/A,,Partly Cloudy,0,2013-08-28 23:45:00
7:50 PM,80.6,69.8,70,30.08,10.0,Calm,Calm,-,N/A,,Partly Cloudy,0,2013-08-29 00:50:00
9:15 PM,77.0,69.8,78,30.09,10.0,Calm,Calm,-,N/A,,Scattered Clouds,0,2013-08-29 02:15:00
9:35 PM,77.0,69.8,78,30.09,10.0,Calm,Calm,-,N/A,,Scattered Clouds,0,2013-08-29 02:35:00
9:55 PM,77.0,69.8,78,30.10,10.0,Calm,Calm,-,N/A,,Partly Cloudy,0,2013-08-29 02:55:00
10:15 PM,77.0,69.8,78,30.10,10.0,Calm,Calm,-,N/A,,Mostly Cloudy,0,2013-08-29 03:15:00
10:35 PM,77.0,68.0,74,30.10,10.0,Calm,Calm,-,N/A,,Mostly Cloudy,0,2013-08-29 03:35:00
10:55 PM,75.2,71.6,89,30.10,10.0,Calm,Calm,-,N/A,,Overcast,0,2013-08-29 03:55:00
11:15 PM,77.0,68.0,74,30.10,10.0,Calm,Calm,-,N/A,,Mostly Cloudy,0,2013-08-29 04:15:00
11:35 PM,75.2,68.0,78,30.10,10.0,Calm,Calm,-,N/A,,Mostly Cloudy,0,2013-08-29 04:35:00
11:55 PM,75.2,68.0,78,30.10,10.0,Calm,Calm,-,N/A,,Mostly Cloudy,0,2013-08-29 04:55:00